Weather History for Camp Pendleton, CA

Change the Weather History Date:

Saturday, February 2, 2013

  Actual Average Record
Temperature  
Mean Temperature 62 °F -  
Max Temperature 80 °F 65 °F 82 °F (2000)
Min Temperature 43 °F 38 °F 24 °F (2002)
Degree Days  
Heating Degree Days 4    
Growing Degree Days 12 (Base 50)    
Moisture  
Dew Point 44 °F    
Average Humidity 62    
Maximum Humidity 83    
Minimum Humidity 22    
Precipitation  
Precipitation 0.00 in - - ()
Sea Level Pressure  
Sea Level Pressure 30.14 in    
Wind  
Wind Speed 1 mph (South)    
Max Wind Speed 6 mph    
Max Gust Speed -    
Visibility 10 miles    
Events      
Averages and records for this station are not official NWS values.
T = Trace of Precipitation, MM = Missing Value Source: NWS Daily Summary

Daily Weather History Graph

Daily Weather History Graph

Search for Another Location

Airport:

Trip Planner

Search our weather history database for the weather conditions in past years. The results will help you decide how hot, cold, wet, or windy it might be!

Date:

Astronomy

Feb. 02, 2013 Rise Set
Actual Time 6:44 AM PST 5:22 PM PST
Civil Twilight 6:18 AM PST 5:48 PM PST
Nautical Twilight 5:48 AM PST 6:18 PM PST
Astronomical Twilight 5:19 AM PST 6:47 PM PST
Moon No Moon Rise 10:21 AM PST (2/2)
Length of Visible Light 11h 30m
Length of Day
10h 38m
Waning Gibbous, 58% of the Moon is Illuminated
Feb 2
Waning Gibbous
Feb 3
Last Quarter
Feb 9
New
Feb 17
First Quarter
Feb 25
Full

Hourly Weather History & Observations

Time (PST) Temp. Dew Point Humidity Pressure Visibility Wind Dir Wind Speed Gust Speed Precip Events Conditions
12:54 AM 46.9 °F 41.0 °F 80% 30.17 in 10.0 mi Calm Calm - N/A   Clear
1:54 AM 50.0 °F 42.1 °F 74% 30.16 in 10.0 mi West 4.6 mph - N/A   Clear
2:54 AM 48.9 °F 42.1 °F 77% 30.16 in 10.0 mi NNE 3.5 mph - N/A   Clear
3:54 AM 46.0 °F 39.9 °F 79% 30.16 in 10.0 mi Calm Calm - N/A   Clear
4:54 AM 46.0 °F 41.0 °F 83% 30.16 in 10.0 mi Calm Calm - N/A   Clear
5:54 AM 43.0 °F 37.9 °F 82% 30.17 in 10.0 mi Calm Calm - N/A   Clear
6:54 AM 43.0 °F 37.0 °F 80% 30.17 in 10.0 mi Calm Calm - N/A   Clear
7:54 AM 48.0 °F 41.0 °F 77% 30.18 in 10.0 mi Calm Calm - N/A   Clear
8:54 AM 54.0 °F 43.0 °F 66% 30.19 in 10.0 mi Calm Calm - N/A   Clear
9:54 AM 61.0 °F 43.0 °F 52% 30.18 in 10.0 mi Calm Calm - N/A   Clear
10:54 AM 69.1 °F 45.0 °F 42% 30.17 in 10.0 mi South 3.5 mph - N/A   Clear
11:54 AM 75.9 °F 39.0 °F 26% 30.14 in 10.0 mi Calm Calm - N/A   Clear
12:54 PM 80.1 °F 37.9 °F 22% 30.10 in 10.0 mi Calm Calm - N/A   Clear
1:54 PM 75.0 °F 43.0 °F 32% 30.09 in 10.0 mi Calm Calm - N/A   Clear
2:54 PM 73.9 °F 46.9 °F 38% 30.08 in 10.0 mi Calm Calm - N/A   Scattered Clouds
3:54 PM 71.1 °F 48.9 °F 45% 30.08 in 10.0 mi South 3.5 mph - N/A   Overcast
4:54 PM 64.9 °F 50.0 °F 58% 30.11 in 10.0 mi South 5.8 mph - N/A   Overcast
5:54 PM 64.9 °F 48.9 °F 56% 30.12 in 10.0 mi Calm Calm - N/A   Overcast
6:54 PM 63.0 °F 51.1 °F 65% 30.13 in 10.0 mi ENE 4.6 mph - N/A   Overcast
7:54 PM 62.1 °F 50.0 °F 65% 30.16 in 10.0 mi SW 4.6 mph - 0.00 in   Mostly Cloudy
8:54 PM 60.1 °F 48.9 °F 67% 30.15 in 10.0 mi Calm Calm - N/A   Overcast
9:54 PM 59.0 °F 50.0 °F 72% 30.14 in 10.0 mi Calm Calm - N/A   Overcast
10:54 PM 57.9 °F 50.0 °F 75% 30.14 in 10.0 mi Calm Calm - N/A   Overcast
11:54 PM 57.9 °F 50.0 °F 75% 30.13 in 10.0 mi Calm Calm - N/A   Overcast